BULGARIASAT-1

Last updated on Thu Nov 21 2024 00:02:43 GMT+0000 (Coordinated Universal Time)

1 42801U 17038A 24325.25465987 .00000012 00000+0 00000+0 0 9997 2 42801 0.0086 60.3691 0002585 177.7585 275.2366 1.00270240 27080
UTC large
Height (km)
Speed (km/s)
/
Latitude / Longitude
Inclination (degrees)
Orbital Period (minutes)
Azimuth
Elevation
Range (km)
Doppler Factor

Next 0 passes for location: London (51.5072 / 0.1276)

Sorry there are no passes over London.